When you browse on this site, cookies collect data to enhance your experience and personalize the content and advertising you see.
Visit our Privacy Policy to learn more. By continuing to use the site, you agree to this use of cookies and data.
  • Em Portugal
  • Lista de países
  • Para 7 dias
  • Temperatura da água
  • Mapas de satélite
  • Mapa do tempo
  • Widgets de tempo
  • user-avatar
    Iniciar Sessão

    Previsão horária em Cochabamba

    Hoje, 20 Janeiro, Domingo

    Tempo Temperatura Precipitação Vento Pressão Humidade
    00:00 +15°C° 0.1 mm 1 m/s 556 mmHg 80%
    01:00 +15°C° 0.1 mm 1 m/s 556 mmHg 81%
    02:00 +15°C° 0 mm 1 m/s 556 mmHg 82%
    03:00 +14°C° 0.1 mm 1 m/s 556 mmHg 82%
    04:00 +14°C° 0.1 mm 1 m/s 556 mmHg 81%
    05:00 +14°C° 0.1 mm 1 m/s 556 mmHg 81%
    06:00 +15°C° 0 mm 1 m/s 556 mmHg 76%
    07:00 +16°C° 0 mm 1 m/s 557 mmHg 71%
    08:00 +16°C° 0 mm 1 m/s 557 mmHg 66%
    09:00 +19°C° 0 mm 1 m/s 558 mmHg 58%
    10:00 +21°C° 0 mm 1 m/s 559 mmHg 51%
    11:00 +22°C° 0 mm 1 m/s 559 mmHg 44%
    12:00 +23°C° 0 mm 1 m/s 559 mmHg 40%
    13:00 +25°C° 0 mm 2 m/s 559 mmHg 36%
    14:00 +26°C° 0 mm 2 m/s 559 mmHg 33%
    15:00 +25°C° 0 mm 2 m/s 558 mmHg 35%
    16:00 +25°C° 0 mm 3 m/s 557 mmHg 37%
    17:00 +25°C° 0 mm 3 m/s 557 mmHg 40%
    18:00 +22°C° 0 mm 3 m/s 556 mmHg 48%
    19:00 +20°C° 0 mm 2 m/s 556 mmHg 57%
    20:00 +18°C° 0 mm 2 m/s 556 mmHg 66%
    21:00 +19°C° 0 mm 1 m/s 556 mmHg 68%
    22:00 +18°C° 0 mm 1 m/s 556 mmHg 70%
    23:00 +16°C° 0 mm 0 m/s 557 mmHg 72%

    Amanhã, 21 Janeiro, Segunda-feira

    Tempo Temperatura Precipitação Vento Pressão Humidade
    00:00 +15°C° 0 mm 0 m/s 556 mmHg 72%
    01:00 +15°C° 0 mm 0 m/s 556 mmHg 72%
    02:00 +14°C° 0 mm 0 m/s 555 mmHg 72%
    03:00 +15°C° 0 mm 1 m/s 555 mmHg 72%
    04:00 +14°C° 0 mm 1 m/s 555 mmHg 72%
    05:00 +14°C° 0 mm 1 m/s 554 mmHg 72%
    06:00 +15°C° 0 mm 1 m/s 555 mmHg 67%
    07:00 +16°C° 0 mm 1 m/s 556 mmHg 61%
    08:00 +18°C° 0 mm 1 m/s 557 mmHg 56%
    09:00 +19°C° 0 mm 1 m/s 557 mmHg 53%
    10:00 +21°C° 0 mm 1 m/s 558 mmHg 50%
    11:00 +22°C° 0 mm 1 m/s 558 mmHg 47%
    12:00 +23°C° 0 mm 1 m/s 558 mmHg 47%
    13:00 +24°C° 0 mm 2 m/s 558 mmHg 46%
    14:00 +24°C° 0 mm 2 m/s 557 mmHg 46%
    15:00 +24°C° 0.1 mm 2 m/s 557 mmHg 46%
    16:00 +24°C° 0.1 mm 2 m/s 556 mmHg 47%
    17:00 +24°C° 0.1 mm 2 m/s 556 mmHg 48%
    18:00 +21°C° 0.1 mm 2 m/s 556 mmHg 54%
    19:00 +20°C° 0.1 mm 2 m/s 556 mmHg 61%
    20:00 +18°C° 0.1 mm 2 m/s 556 mmHg 67%
    21:00 +19°C° 0.1 mm 1 m/s 556 mmHg 69%
    22:00 +18°C° 0.1 mm 1 m/s 557 mmHg 72%
    23:00 +18°C° 0.1 mm 1 m/s 557 mmHg 74%

    Depois de amanhã, 22 Janeiro, Terça-feira

    Tempo Temperatura Precipitação Vento Pressão Humidade
    00:00 +16°C° 0.1 mm 1 m/s 557 mmHg 74%
    01:00 +15°C° 0.1 mm 0 m/s 556 mmHg 75%
    02:00 +15°C° 0.1 mm 0 m/s 556 mmHg 75%
    03:00 +14°C° 0 mm 0 m/s 556 mmHg 76%
    04:00 +14°C° 0 mm 0 m/s 555 mmHg 76%
    05:00 +14°C° 0 mm 1 m/s 555 mmHg 76%
    06:00 +15°C° 0 mm 1 m/s 556 mmHg 72%
    07:00 +16°C° 0 mm 1 m/s 556 mmHg 68%
    08:00 +18°C° 0 mm 1 m/s 557 mmHg 64%
    09:00 +19°C° 0 mm 1 m/s 558 mmHg 59%
    10:00 +21°C° 0 mm 1 m/s 558 mmHg 54%
    11:00 +22°C° 0 mm 1 m/s 559 mmHg 49%
    12:00 +23°C° 0.4 mm 2 m/s 558 mmHg 48%
    13:00 +24°C° 0.4 mm 2 m/s 558 mmHg 47%
    14:00 +24°C° 0.4 mm 3 m/s 558 mmHg 46%
    15:00 +24°C° 0.8 mm 3 m/s 557 mmHg 49%
    16:00 +22°C° 0.8 mm 3 m/s 557 mmHg 51%
    17:00 +22°C° 0.8 mm 3 m/s 556 mmHg 53%
    18:00 +21°C° 0.3 mm 2 m/s 556 mmHg 58%
    19:00 +19°C° 0.3 mm 2 m/s 556 mmHg 64%
    20:00 +18°C° 0.3 mm 2 m/s 556 mmHg 69%
    21:00 +18°C° 0 mm 2 m/s 556 mmHg 71%
    22:00 +17°C° 0 mm 2 m/s 557 mmHg 73%
    23:00 +18°C° 0 mm 1 m/s 557 mmHg 74%

    23 Janeiro, Quarta-feira

    Tempo Temperatura Precipitação Vento Pressão Humidade
    00:00 +16°C° 0 mm 1 m/s 557 mmHg 75%
    01:00 +16°C° 0 mm 1 m/s 556 mmHg 76%
    02:00 +16°C° 0 mm 1 m/s 556 mmHg 77%
    03:00 +15°C° 0 mm 1 m/s 555 mmHg 77%
    04:00 +15°C° 0 mm 1 m/s 555 mmHg 77%
    05:00 +14°C° 0 mm 1 m/s 555 mmHg 78%
    06:00 +15°C° 0 mm 1 m/s 556 mmHg 72%
    07:00 +16°C° 0 mm 1 m/s 557 mmHg 67%
    08:00 +18°C° 0 mm 1 m/s 558 mmHg 61%
    09:00 +20°C° 0 mm 1 m/s 558 mmHg 55%
    10:00 +21°C° 0 mm 1 m/s 559 mmHg 50%
    11:00 +23°C° 0 mm 2 m/s 560 mmHg 44%
    12:00 +23°C° 0.2 mm 2 m/s 559 mmHg 44%
    13:00 +22°C° 0.2 mm 3 m/s 559 mmHg 44%
    14:00 +24°C° 0.2 mm 3 m/s 558 mmHg 44%
    15:00 +22°C° 0.7 mm 3 m/s 558 mmHg 48%
    16:00 +21°C° 0.7 mm 2 m/s 557 mmHg 52%
    17:00 +21°C° 0.7 mm 2 m/s 556 mmHg 56%
    18:00 +21°C° 0.4 mm 1 m/s 556 mmHg 59%
    19:00 +20°C° 0.4 mm 1 m/s 556 mmHg 62%
    20:00 +17°C° 0.4 mm 0 m/s 556 mmHg 65%
    21:00 +17°C° 0.3 mm 0 m/s 557 mmHg 66%
    22:00 +17°C° 0.3 mm 0 m/s 557 mmHg 68%
    23:00 +16°C° 0.3 mm 0 m/s 557 mmHg 69%

    24 Janeiro, Quinta-feira

    Tempo Temperatura Precipitação Vento Pressão Humidade
    00:00 +16°C° 0.2 mm 0 m/s 557 mmHg 70%
    01:00 +16°C° 0.2 mm 1 m/s 556 mmHg 70%
    02:00 +16°C° 0.2 mm 1 m/s 555 mmHg 71%
    03:00 +16°C° 0 mm 1 m/s 555 mmHg 72%
    04:00 +14°C° 0 mm 0 m/s 555 mmHg 73%
    05:00 +14°C° 0 mm 0 m/s 555 mmHg 74%
    06:00 +15°C° 0 mm 0 m/s 556 mmHg 70%
    07:00 +16°C° 0 mm 1 m/s 557 mmHg 66%
    08:00 +18°C° 0 mm 1 m/s 558 mmHg 63%
    09:00 +20°C° 0 mm 1 m/s 558 mmHg 57%
    10:00 +21°C° 0 mm 1 m/s 559 mmHg 52%
    11:00 +23°C° 0 mm 1 m/s 559 mmHg 47%
    12:00 +24°C° 0 mm 2 m/s 559 mmHg 44%
    13:00 +25°C° 0 mm 2 m/s 559 mmHg 41%
    14:00 +26°C° 0 mm 2 m/s 559 mmHg 38%
    15:00 +25°C° 0.1 mm 2 m/s 558 mmHg 40%
    16:00 +25°C° 0.1 mm 2 m/s 557 mmHg 42%
    17:00 +25°C° 0.1 mm 2 m/s 557 mmHg 44%
    18:00 +23°C° 0.1 mm 2 m/s 556 mmHg 51%
    19:00 +22°C° 0.1 mm 1 m/s 556 mmHg 59%
    20:00 +20°C° 0.1 mm 1 m/s 556 mmHg 66%
    21:00 +19°C° 0 mm 1 m/s 556 mmHg 68%
    22:00 +18°C° 0 mm 1 m/s 556 mmHg 70%
    23:00 +18°C° 0 mm 1 m/s 556 mmHg 73%

    25 Janeiro, Sexta-feira

    Tempo Temperatura Precipitação Vento Pressão Humidade
    00:00 +16°C° 0 mm 1 m/s 556 mmHg 74%
    01:00 +15°C° 0 mm 1 m/s 555 mmHg 75%
    02:00 +15°C° 0 mm 1 m/s 555 mmHg 77%
    03:00 +14°C° 0 mm 1 m/s 554 mmHg 77%
    04:00 +14°C° 0 mm 1 m/s 554 mmHg 77%
    05:00 +13°C° 0 mm 1 m/s 554 mmHg 76%
    06:00 +15°C° 0 mm 1 m/s 555 mmHg 68%
    07:00 +18°C° 0 mm 1 m/s 556 mmHg 59%
    08:00 +19°C° 0 mm 1 m/s 557 mmHg 51%
    09:00 +21°C° 0 mm 1 m/s 558 mmHg 44%
    10:00 +23°C° 0 mm 1 m/s 558 mmHg 37%
    11:00 +25°C° 0 mm 1 m/s 559 mmHg 30%
    12:00 +26°C° 0 mm 1 m/s 559 mmHg 29%
    13:00 +27°C° 0 mm 1 m/s 558 mmHg 28%
    14:00 +28°C° 0 mm 2 m/s 558 mmHg 27%
    15:00 +27°C° 0.1 mm 2 m/s 557 mmHg 30%
    16:00 +27°C° 0.1 mm 2 m/s 557 mmHg 33%
    17:00 +26°C° 0.1 mm 2 m/s 556 mmHg 36%
    18:00 +24°C° 0.8 mm 2 m/s 556 mmHg 43%
    19:00 +23°C° 0.8 mm 2 m/s 555 mmHg 49%
    20:00 +20°C° 0.8 mm 2 m/s 555 mmHg 55%
    21:00 +19°C° 0.8 mm 2 m/s 555 mmHg 59%
    22:00 +18°C° 0.8 mm 2 m/s 556 mmHg 63%
    23:00 +17°C° 0.8 mm 2 m/s 556 mmHg 67%
    Mostrar mais